George/Botha, South Africa

7:50 PM SAST on February 26, 2017 (GMT +0200)
George

Weather History for FAGG - December, 2013

Change the Weather History Date:

Wednesday, December 11, 2013

  Actual Average Record
Temperature  
Mean Temperature 64 °F -  
Max Temperature 72 °F 73 °F 84 °F (2002)
Min Temperature 56 °F 57 °F 50 °F (2006)
Degree Days  
Heating Degree Days 1    
Growing Degree Days 14 (Base 50)    
Moisture  
Dew Point 58 °F    
Average Humidity 79    
Maximum Humidity 94    
Minimum Humidity 59    
Precipitation  
Precipitation 0.00 in - - ()
Sea Level Pressure  
Sea Level Pressure 30.02 in    
Wind  
Wind Speed 6 mph ()    
Max Wind Speed 20 mph    
Max Gust Speed -    
Visibility 6.5 miles    
Events Fog    
Averages and records for this station are not official NWS values.
T = Trace of Precipitation, MM = Missing Value Source: Averaged Metar Reports

Daily Weather History Graph

Daily Weather History Graph

Search for Another Location

Airport or City:

Trip Planner

Search our weather history database for the weather conditions in past years. The results will help you decide how hot, cold, wet, or windy it might be!

Date:

Astronomy

Dec. 11, 2013 Rise Set
Actual Time 5:12 AM SAST 7:35 PM SAST
Civil Twilight 4:43 AM SAST 8:04 PM SAST
Nautical Twilight 4:07 AM SAST 8:40 PM SAST
Astronomical Twilight 3:28 AM SAST 9:19 PM SAST
Moon 2:12 PM SAST (12/11) 1:14 AM SAST (12/11)
Length of Visible Light 15h 20m
Length of Day
14h 22m
Waxing Gibbous, 69% of the Moon is Illuminated
Dec 11
Waxing Gibbous
Dec 17
Full
Dec 25
Last Quarter
Jan 1
New
Jan 8
First Quarter

Hourly Weather History & Observations

Time (SAST) Temp. Dew Point Humidity Pressure Visibility Wind Dir Wind Speed Gust Speed Precip Events Conditions
12:00 AM 60.8 °F 57.2 °F 88% 30.04 in 5.0 mi Variable 1.2 mph - N/A   Mostly Cloudy
1:00 AM 60.8 °F 57.2 °F 88% 30.01 in 4.3 mi ESE 3.5 mph - N/A   Mostly Cloudy
2:00 AM 60 °F 57 °F 88% 30.01 in 3 mi ESE 1.2 mph - -  
2:00 AM 59.0 °F 57.2 °F 94% 30.01 in 2.5 mi East 2.3 mph - N/A   Mist
5:00 AM 58 °F 56 °F 91% 30.03 in 0 mi Calm Calm - - Fog Heavy Fog
5:00 AM 59.0 °F 57.2 °F 94% 30.01 in 0.2 mi Variable 1.2 mph - N/A Fog Fog
6:00 AM 57.2 °F 55.4 °F 94% 30.04 in 0.2 mi North 1.2 mph - N/A Fog Fog
7:00 AM 59.0 °F 57.2 °F 94% 30.04 in 6.2 mi SE 4.6 mph - N/A   Scattered Clouds
8:00 AM 61 °F 58 °F 88% 30.03 in 12 mi NNE 3.5 mph - -   Partly Cloudy
8:00 AM 60.8 °F 59.0 °F 94% 30.04 in 6.2 mi Variable 2.3 mph - N/A   Scattered Clouds
9:00 AM 64.4 °F 59.0 °F 83% 30.04 in 6.2 mi Variable 2.3 mph - N/A   Scattered Clouds
10:00 AM 69.8 °F 59.0 °F 68% 30.01 in 6.2 mi SSE 11.5 mph - N/A   Partly Cloudy
11:00 AM 68 °F 59 °F 64% 30.03 in 19 mi SE 10.4 mph - -   Scattered Clouds
11:00 AM 68.0 °F 59.0 °F 73% 30.04 in 6.2 mi SSE 10.4 mph - N/A   Partly Cloudy
12:00 PM 69.8 °F 59.0 °F 68% 30.04 in 6.2 mi ESE 10.4 mph - N/A   Partly Cloudy
1:00 PM 71.6 °F 59.0 °F 64% 30.04 in 6.2 mi SE 11.5 mph - N/A   Partly Cloudy
2:00 PM 71 °F 60 °F 59% 30.03 in 12 mi ESE 18.4 mph - -   Partly Cloudy
2:00 PM 71.6 °F 60.8 °F 69% 30.01 in 6.2 mi East 13.8 mph - N/A   Scattered Clouds
3:00 PM 71.6 °F 59.0 °F 64% 30.01 in 6.2 mi ESE 17.3 mph - N/A   Partly Cloudy
4:00 PM 69.8 °F 60.8 °F 73% 30.01 in 6.2 mi ESE 17.3 mph - N/A   Partly Cloudy
5:00 PM 70 °F 59 °F 59% 29.99 in 12 mi ESE 19.6 mph - -   Scattered Clouds
5:00 PM 69.8 °F 59.0 °F 68% 29.98 in 6.2 mi ESE 17.3 mph - N/A   Partly Cloudy
6:00 PM 68.0 °F 59.0 °F 73% 29.98 in 6.2 mi ESE 16.1 mph - N/A   Partly Cloudy
7:00 PM 64.4 °F 57.2 °F 77% 30.01 in 6.2 mi ESE 15.0 mph - N/A   Partly Cloudy
8:00 PM 62 °F 57 °F 77% 30.02 in 12 mi East 10.4 mph - -   Scattered Clouds
8:00 PM 62.6 °F 57.2 °F 82% 30.01 in 6.2 mi East 10.4 mph - N/A   Partly Cloudy
9:00 PM 60.8 °F 57.2 °F 88% 30.01 in - East 5.8 mph - N/A   Clear
10:00 PM 60.8 °F 57.2 °F 88% 30.04 in - ESE 9.2 mph - N/A   Clear
11:00 PM 59.0 °F 55.4 °F 88% 30.04 in - ENE 5.8 mph - N/A   Clear